Location: *
(38.5875°S, 79.8371°E)
Time: 00:58:20
(UTC+00:00)

Daily predictions for brighter satellites

Satellite Brightness Start Highest point End
(mag) Time Altitude Azimuth Time Altitude Azimuth Time Altitude Azimuth
Cosmos 1733 4.0 00:05:44 37° NNW 00:05:44 37° NNW 00:08:13 10° N
Meteor PRIRODA 3.7 00:01:27 10° NNE 00:05:09 80° ESE 00:06:08 48° S
Lacrosse 5 rocket 3.9 00:05:28 11° S 00:07:12 13° SSE 00:09:18 10° SE
Cosmos 1805 3.6 00:08:10 47° NW 00:08:10 47° NW 00:11:15 10° N
Cosmos 2237 Rocket 3.9 00:12:10 17° SSW 00:12:10 17° SSW 00:14:02 10° S
H-2A R/B 1.8 00:07:29 10° NNE 00:12:25 83° WNW 00:17:05 12° SSW
Cosmos 2026 Rocket 4.0 00:10:05 12° SSW 00:15:35 53° W 00:21:30 10° NNW
CZ-2D R/B 3.2 00:14:23 10° NNE 00:18:15 88° ESE 00:21:00 19° S
COSMOS 2455 3.3 00:17:09 33° W 00:18:47 38° SW 00:24:24 10° SSE
ADEOS 3.6 00:15:03 10° N 00:20:10 55° W 00:24:04 18° SSW
CORIOLIS 4.1 00:17:51 10° NNE 00:23:20 84° WNW 00:28:53 10° SSW
Cosmos 1908 Rocket 3.4 00:19:39 13° S 00:23:31 77° W 00:27:52 10° N
USA 234 3.6 00:18:01 10° SE 00:24:11 44° SSW 00:27:44 24° W
USA 81 3.9 00:19:24 10° N 00:24:42 76° W 00:30:04 10° S
Tiangong 1.5 00:24:30 46° SSW 00:24:46 47° S 00:27:53 10° ESE
Lacrosse 5 4.1 00:24:50 10° S 00:27:30 14° SSE 00:30:10 10° SE
Meteor 1-23 Rocket 4.2 00:22:01 10° N 00:27:42 82° W 00:33:34 10° S
USA 281 4.1 00:21:48 10° NE 00:28:02 47° ESE 00:34:18 10° S
Aureole 3 Rocket 4.3 00:23:51 10° N 00:29:17 73° E 00:37:04 10° S
CZ-4B R/B 2.9 00:25:52 10° N 00:29:46 60° W 00:33:01 16° SSW
Iridium 2 4.0 00:29:35 10° S 00:33:24 66° E 00:37:09 10° N
Cosmos 2242 Rocket 3.6 00:29:41 10° N 00:34:17 77° W 00:38:57 10° S
Meteor 1-12 Rocket 4.4 00:29:17 10° SSW 00:35:19 63° W 00:41:14 10° N
Cosmos 2369 Rocket 3.1 00:31:20 10° SSW 00:36:55 49° ESE 00:42:24 10° NE
AQUARIUS 4.2 00:34:23 10° N 00:38:49 56° W 00:43:19 10° SSW
Cosmos 1626 4.4 00:37:24 10° NNE 00:40:34 27° E 00:43:47 10° SSE
X-37B 1.1 00:43:19 32° SW 00:43:58 37° SSW 00:46:45 10° SE
Okean 3 3.7 00:40:57 10° NNW 00:44:58 45° W 00:49:05 10° S
SJ-11-01 4.3 00:40:23 10° NNE 00:45:05 89° WNW 00:49:51 10° SSW
Cosmos 1242 Rocket 2.5 00:45:27 10° S 00:49:08 85° W 00:52:44 10° N
CZ-4 R/B 4.0 00:47:36 10° ENE 00:50:20 18° ESE 00:53:06 10° SSE
SMAP 3.7 00:46:22 10° NNW 00:50:39 35° W 00:55:00 10° SSW
SL-08 R/B 4.4 00:47:32 10° SSW 00:51:15 23° WSW 00:54:59 10° WNW
Okean 1-7 3.9 00:50:21 10° NW 00:54:12 29° WSW 00:58:07 10° SSW
Cosmos 1943 Rocket 2.6 00:50:55 13° SW 00:55:34 40° WNW 01:00:46 10° N
COSMO-SKYMED 1 2.5 00:53:15 10° S 00:57:41 77° WSW 01:02:02 10° NNW
SL-08 RB Rocket 3.6 00:53:46 10° N 00:58:15 78° WNW 01:02:49 10° SSW
Cosmos 1674 3.3 00:55:51 10° N 00:59:29 59° E 01:03:13 10° SSE
Cosmos 1707 2.7 00:55:41 10° NNW 00:59:35 76° W 01:03:33 10° S
PAYLOAD B 4.4 00:55:15 10° NNE 01:00:51 80° ESE 01:06:30 10° SSW
Cosmos 1300 Rocket 3.7 00:59:02 10° S 01:03:27 81° E 01:07:48 10° N
Cosmos 2266 Rocket 4.0 00:58:14 10° S 01:04:43 77° W 01:11:02 10° N
Cosmos 1269 Rocket 4.1 01:00:22 10° SSW 01:05:38 59° WNW 01:10:49 10° N
Atlas Centaur 2 3.7 01:03:37 10° WNW 01:07:35 24° N 01:12:18 10° NE
Cosmos 1726 3.6 01:07:35 12° SW 01:09:39 18° W 01:12:14 10° NW
Cosmos 1437 Rocket 3.7 01:07:50 10° S 01:11:37 49° ESE 01:15:18 10° NNE
Cosmos 405 Rocket 2.5 01:08:41 10° NNW 01:12:22 77° W 01:16:08 10° S
DELTA 2 R/B (1) 4.3 01:07:55 11° W 01:12:58 43° NNW 01:18:14 10° NE
ARGOS 3.6 01:09:30 10° N 01:14:36 42° W 01:19:44 10° SSW
SeaSat 1 4.4 01:22:28 10° WNW 01:23:44 11° WNW 01:25:01 10° W
PSLV R/B 4.2 01:20:14 10° N 01:24:11 47° W 01:28:09 10° SSW
Cosmos 614 Rocket 4.0 01:20:16 10° SSW 01:25:25 83° WNW 01:30:33 10° NNE
Cosmos 1238 Rocket 4.4 01:24:19 10° SSE 01:27:09 27° ESE 01:29:48 10° NE
Iridium 51 4.0 01:24:07 10° N 01:27:43 75° W 01:31:15 10° S
Lacrosse 4 Rocket 2.8 01:25:19 10° W 01:28:37 20° SW 01:31:59 10° S
SL-16 R/B 3.6 01:25:54 10° W 01:29:24 16° SW 01:32:55 10° SSW
Cosmos 2221 Rocket 3.6 01:27:04 10° N 01:31:33 79° W 01:36:06 10° S
